Regional Weather Roundup
Issued by NWS

Home | Current Version | Previous Version | Graphics & Text | Print | Product List | Glossary Off
Versions: 1 2 3 4 5 6 7 8 9 10 11 12 13 14 15 16 17 18 19 20 21 22 23 24 25 26 27 28 29 30 31 32 33 34 35 36 37 38 39 40 41 42 43 44 45 46 47 48 49 50

000
ASUS43 KTOP 110859
RWRKS

WEATHER ROUNDUP FOR KANSAS
NATIONAL WEATHER SERVICE GOODLAND KS
300 AM CST SUN DEC 11 2016

NOTE:  "FAIR" INDICATES FEW OR NO CLOUDS BELOW 12,000 FEET WITH NO
SIGNIFICANT WEATHER AND/OR OBSTRUCTIONS TO VISIBILITY.

KSZ001>006-013>018-027>032-041>047-111000-
NORTHWEST KANSAS

CITY           SKY/WX    TMP DP  RH WIND       PRES   REMARKS
GOODLAND       CLOUDY    31  24  75 W9        29.65R
HILL CITY      CLOUDY    22  19  89 NW5       29.67S
RUSSELL        CLOUDY    30  27  88 S10       29.65R WCI  21
$$

KSZ061>065-074>080-084>089-111000-
SOUTHWEST KANSAS

CITY           SKY/WX    TMP DP  RH WIND       PRES   REMARKS
DODGE CITY     CLOUDY    30  28  92 NW3       29.63F
ELKHART          N/A     43  16  33 W10         N/A
GARDEN CITY    CLOUDY    25  22  88 NW8       29.65S
GREAT BEND     CLOUDY    30  28  92 SE3       29.67R
LIBERAL        CLOUDY    36  23  60 NW6       29.66R
$$

KSZ066>073-081>083-090>101-111000-
SOUTHEAST KANSAS

CITY           SKY/WX    TMP DP  RH WIND       PRES   REMARKS
CHANUTE        CLOUDY    45  29  53 S23G35    29.82F
COFFEYVILLE    CLOUDY    46  29  51 S23G33    29.86F
HUTCHINSON     CLOUDY    42  38  85 S17       29.70F
MEDICINE LODGE   N/A     39  37  92 SE9       29.68S
NEWTON         CLOUDY    44  39  82 S23G30    29.71S
PARSONS        CLOUDY    46  28  49 S17G32    29.85F
WICHITA INTL   CLOUDY    44  39  82 S18       29.71F
WICHITA JABRA  CLOUDY    45  40  82 S20G28    29.71F
WINFIELD       CLOUDY    47  41  80 S23G32    29.76F
$$

KSZ007>012-019>026-033>040-048>060-102>105-111000-
NORTHEAST KANSAS

CITY           SKY/WX    TMP DP  RH WIND       PRES   REMARKS
CONCORDIA      CLOUDY    29  25  85 E6        29.71F
EMPORIA        CLOUDY    42  35  76 S15G24    29.75F
LAWRENCE       CLOUDY    41  31  67 SE12      29.81F
MANHATTAN      CLOUDY    41  32  70 S5        29.75F
OLATHE IND     CLOUDY    41  29  62 S16G24    29.82F
OLATHE EXE     CLOUDY    39  26  59 S14G23    29.82F WCI  31
SALINA         CLOUDY    42  36  79 S8        29.72R
TOPEKA BILLARD CLOUDY    41  31  67 SE8       29.79F
TOPEKA FORBES  CLOUDY    42  32  67 S13G22    29.77F
$$



USA.gov is the U.S. government's official web portal to all federal, state and local government web resources and services.